PDT6097 KCLT-KAVL

Flight info

Callsign PDT6097
Flight time 0h 31m
Altitude 12000
Route CLT3 PITTY SUG
Aircraft E145/M-SDFGIRW/S

Departure

Time 2026-05-07 00:54
Airport Charlotte Douglas International Airport (KCLT)

Arrival

Time 2026-05-07 01:25
Airport Asheville Regional Airport (KAVL)
Time Latitude Longitude Altitude Speed Heading
2026-05-07 00:30 35.22264 -80.93914 731 ft 0 kts
2026-05-07 00:46 35.22264 -80.93913 732 ft 0 kts
2026-05-07 00:46 35.22264 -80.93914 732 ft 0 kts
2026-05-07 00:47 35.22250 -80.93913 732 ft 2 kts 351°
2026-05-07 00:47 35.22236 -80.93911 732 ft 2 kts 10°
2026-05-07 00:47 35.22223 -80.93919 731 ft 2 kts 51°
2026-05-07 00:47 35.22217 -80.93934 730 ft 0 kts 86°
2026-05-07 00:48 35.22217 -80.93937 730 ft 0 kts 86°
2026-05-07 00:50 35.22218 -80.93899 732 ft 8 kts 86°
2026-05-07 00:50 35.22223 -80.93829 733 ft 8 kts 89°
2026-05-07 00:50 35.22204 -80.93764 734 ft 8 kts 112°
2026-05-07 00:51 35.22233 -80.93729 735 ft 6 kts 357°
2026-05-07 00:51 35.22311 -80.93733 735 ft 16 kts 355°
2026-05-07 00:51 35.22436 -80.93745 735 ft 18 kts 355°
2026-05-07 00:51 35.22511 -80.93706 735 ft 9 kts 90°
2026-05-07 00:52 35.22510 -80.93629 736 ft 0 kts 107°
2026-05-07 00:52 35.22504 -80.93625 736 ft 1 kts 165°
2026-05-07 00:52 35.22477 -80.93618 736 ft 1 kts 176°
2026-05-07 00:52 35.22451 -80.93617 736 ft 11 kts 176°
2026-05-07 00:53 35.22093 -80.93585 736 ft 89 kts 176°
2026-05-07 00:53 35.21258 -80.93520 734 ft 147 kts 178°
2026-05-07 00:53 35.20217 -80.93357 1128 ft 159 kts 174°
2026-05-07 00:53 35.18956 -80.93188 1272 ft 199 kts 176°
2026-05-07 00:54 35.17583 -80.93012 1974 ft 206 kts 176°
2026-05-07 00:54 35.16157 -80.92802 2732 ft 210 kts 176°
2026-05-07 00:54 35.14728 -80.92564 3587 ft 209 kts 176°
2026-05-07 00:54 35.13288 -80.92295 4316 ft 214 kts 176°
2026-05-07 00:55 35.11825 -80.92008 5105 ft 216 kts 176°
2026-05-07 00:55 35.10325 -80.91704 5828 ft 222 kts 176°
2026-05-07 00:55 35.08792 -80.91379 6677 ft 228 kts 177°
2026-05-07 00:55 35.07260 -80.91097 7588 ft 225 kts 187°
2026-05-07 00:56 35.05824 -80.91662 8315 ft 217 kts 222°
2026-05-07 00:56 35.04979 -80.93156 8806 ft 228 kts 253°
2026-05-07 00:56 35.04997 -80.95194 9020 ft 257 kts 286°
2026-05-07 00:56 35.06019 -80.96980 9743 ft 270 kts 313°
2026-05-07 00:57 35.07207 -80.98669 10592 ft 260 kts 291°
2026-05-07 00:57 35.07835 -81.00674 11408 ft 256 kts 286°
2026-05-07 00:57 35.08456 -81.02707 12148 ft 252 kts 285°
2026-05-07 00:57 35.09055 -81.04684 12455 ft 252 kts 286°
2026-05-07 00:58 35.09681 -81.06763 12027 ft 270 kts 286°
2026-05-07 00:58 35.10341 -81.08951 11984 ft 280 kts 286°
2026-05-07 00:58 35.11024 -81.11213 11969 ft 292 kts 286°
2026-05-07 00:58 35.11737 -81.13581 11973 ft 302 kts 287°
2026-05-07 00:59 35.13229 -81.18537 11974 ft 320 kts 287°
2026-05-07 00:59 35.14009 -81.21133 11972 ft 327 kts 286°
2026-05-07 00:59 35.14785 -81.23713 11942 ft 322 kts 287°
2026-05-07 01:00 35.15550 -81.26262 11920 ft 314 kts 286°
2026-05-07 01:00 35.16283 -81.28709 11911 ft 307 kts 287°
2026-05-07 01:00 35.17008 -81.31129 11932 ft 301 kts 286°
2026-05-07 01:00 35.17719 -81.33507 11934 ft 296 kts 286°
2026-05-07 01:01 35.18436 -81.35906 11931 ft 302 kts 286°
2026-05-07 01:01 35.19165 -81.38349 11936 ft 310 kts 286°
2026-05-07 01:01 35.19906 -81.40829 11939 ft 316 kts 286°
2026-05-07 01:01 35.20664 -81.43373 11970 ft 321 kts 287°
2026-05-07 01:02 35.21431 -81.45947 11972 ft 327 kts 287°
2026-05-07 01:02 35.22209 -81.48559 11980 ft 329 kts 286°
2026-05-07 01:02 35.22993 -81.51199 11927 ft 333 kts 287°
2026-05-07 01:02 35.23797 -81.53899 11918 ft 335 kts 287°
2026-05-07 01:03 35.24582 -81.56541 11919 ft 336 kts 287°
2026-05-07 01:03 35.25385 -81.59248 11917 ft 337 kts 287°
2026-05-07 01:03 35.26174 -81.61910 11917 ft 333 kts 286°
2026-05-07 01:03 35.26965 -81.64583 11916 ft 331 kts 287°
2026-05-07 01:04 35.27736 -81.67189 11924 ft 328 kts 286°
2026-05-07 01:04 35.28508 -81.69801 11924 ft 326 kts 286°
2026-05-07 01:04 35.29280 -81.72415 11928 ft 325 kts 286°
2026-05-07 01:04 35.30043 -81.75004 11909 ft 323 kts 286°
2026-05-07 01:05 35.30801 -81.77576 11924 ft 322 kts 286°
2026-05-07 01:05 35.31564 -81.80167 11933 ft 322 kts 286°
2026-05-07 01:05 35.32317 -81.82729 11933 ft 321 kts 285°
2026-05-07 01:05 35.33044 -81.85302 11923 ft 318 kts 282°
2026-05-07 01:06 35.33538 -81.87915 11949 ft 316 kts 279°
2026-05-07 01:06 35.34026 -81.90564 11941 ft 316 kts 279°
2026-05-07 01:06 35.34505 -81.93163 11933 ft 316 kts 279°
2026-05-07 01:06 35.34987 -81.95789 11925 ft 315 kts 279°
2026-05-07 01:07 35.35464 -81.98389 11931 ft 314 kts 279°
2026-05-07 01:07 35.35943 -82.01000 11928 ft 315 kts 279°
2026-05-07 01:07 35.36427 -82.03647 11918 ft 321 kts 279°
2026-05-07 01:07 35.36918 -82.06335 11939 ft 328 kts 280°
2026-05-07 01:08 35.37421 -82.09085 11933 ft 332 kts 279°
2026-05-07 01:08 35.37922 -82.11829 11926 ft 326 kts 279°
2026-05-07 01:08 35.38409 -82.14500 11937 ft 316 kts 279°
2026-05-07 01:08 35.38884 -82.17082 11927 ft 308 kts 281°
2026-05-07 01:09 35.39800 -82.19475 11564 ft 317 kts 302°
2026-05-07 01:09 35.41486 -82.21208 11153 ft 323 kts 323°
2026-05-07 01:09 35.43403 -82.22581 10790 ft 317 kts 323°
2026-05-07 01:09 35.45286 -82.23922 10455 ft 308 kts 323°
2026-05-07 01:10 35.47100 -82.25207 10154 ft 296 kts 323°
2026-05-07 01:10 35.48837 -82.26446 9888 ft 285 kts 323°
2026-05-07 01:10 35.50520 -82.27640 9635 ft 274 kts 323°
2026-05-07 01:10 35.52147 -82.28794 9384 ft 265 kts 323°
2026-05-07 01:11 35.53718 -82.29906 9135 ft 256 kts 323°
2026-05-07 01:11 35.55278 -82.31016 8953 ft 259 kts 323°
2026-05-07 01:11 35.56808 -82.32112 8631 ft 257 kts 323°
2026-05-07 01:11 35.58373 -82.33236 8116 ft 259 kts 323°
2026-05-07 01:12 35.59887 -82.34339 7974 ft 252 kts 323°
2026-05-07 01:12 35.61381 -82.35404 7964 ft 245 kts 323°
2026-05-07 01:12 35.62843 -82.36444 7960 ft 238 kts 323°
2026-05-07 01:12 35.64261 -82.37455 7960 ft 231 kts 323°
2026-05-07 01:13 35.65644 -82.38435 7968 ft 233 kts 323°
2026-05-07 01:13 35.67061 -82.39457 7969 ft 239 kts 323°
2026-05-07 01:13 35.68536 -82.40530 7975 ft 252 kts 323°
2026-05-07 01:13 35.70068 -82.41663 7972 ft 264 kts 323°
2026-05-07 01:14 35.71686 -82.42870 7974 ft 274 kts 323°
2026-05-07 01:14 35.73290 -82.44066 7955 ft 260 kts 323°
2026-05-07 01:14 35.74798 -82.45178 7959 ft 250 kts 323°
2026-05-07 01:14 35.76276 -82.46265 7956 ft 240 kts 323°
2026-05-07 01:15 35.77692 -82.47284 7957 ft 231 kts 323°
2026-05-07 01:15 35.79073 -82.48257 7963 ft 226 kts 323°
2026-05-07 01:15 35.80392 -82.49265 7967 ft 220 kts 312°
2026-05-07 01:15 35.81119 -82.50811 7987 ft 208 kts 277°
2026-05-07 01:16 35.80877 -82.52523 7990 ft 207 kts 242°
2026-05-07 01:16 35.79848 -82.53789 7985 ft 214 kts 224°
2026-05-07 01:16 35.78666 -82.54901 7838 ft 211 kts 223°
2026-05-07 01:16 35.77489 -82.56014 7292 ft 222 kts 224°
2026-05-07 01:17 35.76252 -82.57191 6880 ft 225 kts 223°
2026-05-07 01:17 35.75025 -82.58361 6567 ft 223 kts 223°
2026-05-07 01:17 35.73794 -82.59537 6295 ft 221 kts 223°
2026-05-07 01:17 35.72575 -82.60702 5988 ft 221 kts 223°
2026-05-07 01:18 35.71398 -82.61846 5959 ft 215 kts 224°
2026-05-07 01:18 35.70222 -82.62984 5960 ft 210 kts 224°
2026-05-07 01:18 35.69080 -82.64072 5949 ft 202 kts 223°
2026-05-07 01:18 35.68006 -82.65094 5971 ft 189 kts 223°
2026-05-07 01:19 35.67005 -82.66026 5961 ft 173 kts 223°
2026-05-07 01:19 35.66033 -82.66792 5945 ft 167 kts 204°
2026-05-07 01:19 35.64900 -82.66652 5962 ft 168 kts 156°
2026-05-07 01:19 35.63987 -82.65642 5790 ft 186 kts 137°
2026-05-07 01:20 35.63082 -82.64457 5627 ft 193 kts 139°
2026-05-07 01:20 35.62161 -82.63269 5511 ft 188 kts 143°
2026-05-07 01:20 35.61071 -82.62346 5281 ft 187 kts 157°
2026-05-07 01:20 35.59926 -82.61642 5022 ft 180 kts 162°
2026-05-07 01:21 35.58832 -82.61072 4966 ft 166 kts 165°
2026-05-07 01:21 35.57739 -82.60550 4805 ft 170 kts 165°
2026-05-07 01:21 35.56623 -82.60036 4606 ft 173 kts 165°
2026-05-07 01:21 35.55489 -82.59522 4387 ft 173 kts 165°
2026-05-07 01:22 35.54362 -82.59016 4158 ft 172 kts 164°
2026-05-07 01:22 35.53260 -82.58520 3924 ft 162 kts 164°
2026-05-07 01:22 35.52232 -82.58059 3738 ft 155 kts 163°
2026-05-07 01:22 35.51243 -82.57616 3521 ft 149 kts 163°
2026-05-07 01:23 35.50281 -82.57185 3323 ft 144 kts 163°
2026-05-07 01:23 35.49346 -82.56767 3143 ft 144 kts 162°
2026-05-07 01:23 35.48389 -82.56338 2951 ft 148 kts 162°
2026-05-07 01:23 35.47417 -82.55904 2756 ft 152 kts 161°
2026-05-07 01:24 35.46415 -82.55455 2552 ft 152 kts 161°
2026-05-07 01:24 35.45421 -82.55010 2354 ft 151 kts 160°
2026-05-07 01:24 35.44425 -82.54567 2166 ft 151 kts 159°
2026-05-07 01:24 35.43552 -82.54175 2153 ft 112 kts 160°
2026-05-07 01:25 35.43026 -82.53941 2121 ft 57 kts 159°
2026-05-07 01:25 35.42766 -82.53825 2105 ft 24 kts 159°
2026-05-07 01:25 35.42701 -82.53788 2101 ft 8 kts 151°
2026-05-07 01:25 35.42663 -82.53734 2098 ft 7 kts 76°
2026-05-07 01:26 35.42685 -82.53678 2098 ft 4 kts 55°
2026-05-07 01:26 35.42703 -82.53664 2098 ft 5 kts 32°
2026-05-07 01:26 35.42707 -82.53663 2099 ft 1 kts
2026-05-07 01:26 35.42747 -82.53674 2101 ft 5 kts 339°
2026-05-07 01:27 35.42793 -82.53696 2104 ft 9 kts 339°
2026-05-07 01:27 35.42871 -82.53731 2110 ft 14 kts 340°
2026-05-07 01:27 35.42960 -82.53770 2115 ft 12 kts 339°
2026-05-07 01:27 35.43030 -82.53802 2120 ft 10 kts 339°
2026-05-07 01:28 35.43100 -82.53832 2125 ft 9 kts 340°
2026-05-07 01:28 35.43168 -82.53863 2129 ft 14 kts 340°
2026-05-07 01:28 35.43282 -82.53913 2136 ft 16 kts 340°
2026-05-07 01:28 35.43338 -82.53925 2139 ft 4 kts 32°
2026-05-07 01:29 35.43371 -82.53899 2139 ft 6 kts 28°
2026-05-07 01:29 35.43407 -82.53893 2141 ft 3 kts
2026-05-07 01:29 35.43420 -82.53885 2142 ft 2 kts 32°
2026-05-07 01:29 35.43431 -82.53859 2142 ft 3 kts 69°
2026-05-07 01:30 35.43436 -82.53841 2143 ft 0 kts 70°